Home   Weather   Pensacola   Past weeks

Flag for USA Past Weather in Pensacola, Florida, USA — Yesterday and Last 2 Weeks

Now
70 °F

Passing clouds.


Feels Like: 77 °F
Forecast: 53 / 75 °F
Wind: 13 mph from Northwest

Location: Pensacola Regional Airport

Current Time: Apr 24, 2017 at 6:28:21 pm

Latest Report: Apr 24, 2017 at 5:53 pm


Visibility: 10 mi

Pressure: 29.80 "Hg

Humidity: 49%

Dew Point: 50 °F

Location of PensacolaLocation

Past Weather in Pensacola — Graph

°F

Pensacola Temperature Yesterday

Maximum temperature yesterday: 74 °F (at 12:38 am)
Minimum temperature yesterday: 58 °F (at 11:53 pm)
Average temperature yesterday: 70 °F

High & Low Weather Summary for the Past Weeks

 TemperatureHumidityPressure
High83 °F (Apr 21, 1:53 pm)97% (Apr 20, 8:06 am)30.27 "Hg (Apr 20, 8:06 am)
Low57 °F (Apr 24, 12:53 am)34% (Apr 13, 2:53 pm)29.79 "Hg (Apr 23, 4:53 pm)
Average71 °F74%30.10 "Hg
* Reported Apr 9 4:53 pm — Apr 24 4:53 pm, Pensacola, Weather by CustomWeather, © 2017

Note: Actual official high and low records may vary slightly from our data, if they occured in-between our weather recording intervals... More about our weather records

Advertising

Pensacola Weather History for the Previous 24 Hours

Scroll right to see more
 ConditionsComfort  
Time TempWeatherWind HumidityBarometerVisibility
4:53 pm
Mon, Apr 24
70 °FScattered clouds.12 mph51%29.80 "Hg10 mi
3:53 pm69 °FPartly sunny.16 mph53%29.80 "Hg10 mi
2:53 pm69 °FOvercast.17 mph53%29.83 "Hg10 mi
1:53 pm67 °FPartly sunny.12 mph59%29.83 "Hg10 mi
12:53 pm65 °FMostly cloudy.15 mph59%29.84 "Hg10 mi
12:27 pm67 °FMore clouds than sun.15 mph55%29.84 "Hg10 mi
11:53 am64 °FOvercast.15 mph61%29.86 "Hg10 mi
10:53 am62 °FOvercast.14 mph62%29.86 "Hg10 mi
9:53 am62 °FOvercast.16 mph62%29.85 "Hg10 mi
8:53 am60 °FOvercast.13 mph67%29.85 "Hg10 mi
7:54 am59 °FOvercast.10 mph67%29.84 "Hg10 mi
6:53 am58 °FOvercast.9 mph67%29.83 "Hg10 mi
5:53 am58 °FOvercast.12 mph65%29.80 "Hg10 mi
4:53 am58 °FOvercast.8 mph70%29.80 "Hg10 mi
3:53 am58 °FOvercast.6 mph72%29.80 "Hg10 mi
3:05 am58 °FOvercast.7 mph75%29.81 "Hg10 mi
1:53 am58 °FOvercast.12 mph72%29.83 "Hg10 mi
12:53 am57 °FClear.9 mph74%29.85 "Hg10 mi
11:53 pm
Sun, Apr 23
58 °FClear.14 mph72%29.87 "Hg10 mi
10:53 pm59 °FClear.13 mph72%29.87 "Hg10 mi
9:53 pm60 °FClear.12 mph69%29.88 "Hg10 mi
8:53 pm63 °FPassing clouds.16 mph60%29.87 "Hg10 mi
7:53 pm66 °FPassing clouds.20 mph56%29.85 "Hg10 mi
6:53 pm70 °FPassing clouds.13 mph49%29.81 "Hg10 mi
Weather by CustomWeather, © 2017

See weather overviewHow to use our weather pages